Onweer radar more information blitzortung!


Regen radar more information rain snow radar


Meteo Sauwerd

Weerstation Alkmaar Centrum

Weerstation Luyksgestel

Website Noardburgum

Weerstation Noordbergum



Het weer levert geen direct gevaar op.    Er zijn geen waarschuwingen afgegeven.

Select another period ( hide this area )

Eenheden Periode Custom range Directly to
Metrisch Engels Beide
Dagelijkse Wekelijkse Maandelijkse Jaarlijkse
use both date-selectors for a custom range
previous Dag
With this date

WeatherUnderground graphs for this period ( click here )


Dagelijkse Samenvatting Donderdag 23 mei 2019
Tijd Temp. ( °C ) Dew pt. ( °C ) Wind ( km/h ) van Windvlaag ( km/h ) Luchtdruk ( hPa ) Humid.( % ) Rainrate ( cm ) Zonneschijn ( W/m2 )
Hoog19,3 11,2 22,7 ZZW ( 309/946 ) 30,6 1018,8 86 - 715
Gemiddeld11,6 7,7 6,7 Zuiden #43/141 11,9 1017,5 78 - 296 #76/141
Laag8,6 6,2 -   1,6 1016,8 57 -  
Dagelijkse Tabular details for Donderdag 23 mei 2019
Tijd Temp. ( °C ) Dew pt. ( °C ) Wind ( km/h ) van Windvlaag ( km/h ) Luchtdruk ( hPa ) Humid.( % ) Rainrate ( cm ) Zonneschijn ( W/m2 )
00:04 9,7 6,2 4,7 Westen 4,8 1018,5 79 - -
00:09 9,6 6,3 1,4 Westen 4,8 1018,5 80 - -
00:14 9,6 6,3 1,4 Westen 3,2 1018,8 80 - -
00:19 9,5 6,2 3,2 Westen 4,8 1018,5 80 - -
00:24 9,4 6,3 3,2 Westen 3,2 1018,5 81 - -
00:29 9,4 6,3 1,4 Westen 3,2 1018,5 81 - -
00:34 9,4 6,3 1,4 Westen 3,2 1018,5 81 - -
00:39 9,4 6,5   Windstil 3,2 1018,5 82 - -
00:44 9,4 6,5 3,2 Westen 3,2 1018,5 82 - -
00:49 9,4 6,5 3,2 Westen 3,2 1018,5 82 - -
00:54 9,4 6,5 3,2 Westen 3,2 1018,5 82 - -
00:59 9,4 6,7 3,2 Westen 4,8 1018,5 83 - -
01:04 9,4 6,7 1,4 Westen 3,2 1018,5 83 - -
01:09 9,4 6,7 1,4 Westen 3,2 1018,5 83 - -
01:14 9,4 6,7   Windstil 1,6 1018,5 83 - -
01:19 9,3 6,6 1,4 Westen 1,6 1018,5 83 - -
01:24 9,2 6,5   Windstil 1,6 1018,2 83 - -
01:29 9,2 6,5 1,4 Westen 3,2 1018,2 83 - -
01:34 9,1 6,4 1,4 Westen 3,2 1018,2 83 - -
01:39 9,1 6,5 1,4 Westen 3,2 1018,2 84 - -
01:44 9,1 6,5 1,4 Westen 3,2 1018,5 84 - -
01:49 9,0 6,4 1,4 Westen 3,2 1018,5 84 - -
01:54 9,0 6,4 1,4 ZW 3,2 1018,5 84 - -
01:59 9,0 6,6 4,7 ZW 4,8 1018,5 85 - -
02:04 9,0 6,6 3,2 ZW 4,8 1018,2 85 - -
02:09 8,9 6,5 3,2 ZW 4,8 1018,2 85 - -
02:14 9,0 6,6 3,2 ZW 4,8 1018,2 85 - -
02:19 8,9 6,3 3,2 ZW 4,8 1018,2 84 - -
02:24 8,9 6,3 4,7 Zuiden 6,4 1018,2 84 - -
02:29 8,9 6,5 3,2 Zuiden 4,8 1018,2 85 - -
02:34 8,8 6,4 4,7 Zuiden 6,4 1018,2 85 - -
02:39 8,8 6,4 3,2 Zuiden 6,4 1018,2 85 - -
02:44 8,8 6,6 3,2 Zuiden 6,4 1018,2 86 - -
02:49 8,8 6,6 3,2 Zuiden 4,8 1018,2 86 - -
02:54 8,8 6,4 4,7 Zuiden 4,8 1018,2 85 - -
02:59 8,8 6,6 1,4 Zuiden 4,8 1018,2 86 - -
03:04 8,8 6,4 1,4 Zuiden 4,8 1018,2 85 - -
03:09 8,8 6,6 4,7 Zuiden 6,4 1017,8 86 - -
03:14 8,7 6,5 3,2 Zuiden 4,8 1017,8 86 - -
03:19 8,7 6,5 3,2 Zuiden 8,0 1017,8 86 - -
03:24 8,7 6,5 4,7 Zuiden 6,4 1017,8 86 - -
03:29 8,7 6,5 3,2 Zuiden 6,4 1017,8 86 - -
03:34 8,7 6,5 4,7 Zuiden 6,4 1017,8 86 - -
03:39 8,7 6,5 7,9 Zuiden 9,7 1017,8 86 - -
03:44 8,8 6,6 6,4 ZZO 6,4 1017,8 86 - -
03:49 8,8 6,6 6,4 ZZO 8,0 1017,8 86 - -
03:54 8,8 6,6 1,4 ZZO 8,0 1017,8 86 - -
03:59 8,8 6,6 1,4 Zuiden 4,8 1017,8 86 - -
04:04 8,8 6,4 1,4 Zuiden 4,8 1017,8 85 - -
04:09 8,8 6,4 4,7 Zuiden 4,8 1017,5 85 - -
04:14 8,7 6,3 3,2 Zuiden 4,8 1017,5 85 - -
04:19 8,7 6,3 6,4 Zuiden 6,4 1017,5 85 - -
04:24 8,6 6,2 1,4 Zuiden 4,8 1017,5 85 - -
04:29 8,6 6,2 4,7 Zuiden 6,4 1017,5 85 - -
04:34 8,6 6,4 4,7 Zuiden 8,0 1017,5 86 - -
04:39 8,7 6,5 3,2 ZZO 9,7 1017,5 86 - -
04:44 8,9 6,5 4,7 Zuiden 9,7 1017,5 85 - -
04:49 9,1 6,7 9,7 Zuiden 11,3 1017,2 85 - -
04:54 9,3 6,7 6,4 ZZO 12,9 1017,2 84 - -
04:59 9,3 6,7 6,4 ZZO 9,7 1017,2 84 - -
05:04 9,3 6,7 3,2 Zuiden 11,3 1017,2 84 - -
05:09 9,3 6,7 6,4 ZW 8,0 1017,2 84 - -
05:14 9,3 6,7 7,9 ZZO 9,7 1017,2 84 - -
05:19 9,3 6,7 4,7 ZO 11,3 1017,2 84 - -
05:24 9,3 6,7 7,9 ZZO 8,0 1017,2 84 - -
05:29 9,4 6,7 7,9 ZZO 12,9 1017,2 83 - 5
05:34 9,4 6,7 3,2 Zuiden 9,7 1017,2 83 - 7
05:39 9,5 6,8 3,2 ZZW 9,7 1017,2 83 - 9
05:44 9,6 6,9 7,9 ZZW 11,3 1017,2 83 - 11
05:49 9,6 6,9 6,4 Zuiden 9,7 1017,2 83 - 12
05:54 9,6 6,7 4,7 ZW 11,3 1017,2 82 - 16
05:59 9,7 6,8 7,9 ZZO 12,9 1017,2 82 - 18
06:04 9,6 6,7 4,7 Zuiden 16,1 1016,8 82 - 19
06:09 9,7 6,8 6,4 ZZW 9,7 1016,8 82 - 21
06:14 9,7 6,8 7,9 ZO 16,1 1016,8 82 - 25
06:19 9,7 6,8 6,4 ZZW 12,9 1016,8 82 - 26
06:24 9,8 6,9 6,4 ZZW 12,9 1016,8 82 - 37
06:29 9,8 6,9 6,4 ZZO 14,5 1016,8 82 - 30
06:34 9,9 7,0 9,7 ZZW 11,3 1016,8 82 - 35
06:39 10,1 7,0 6,4 OZO 14,5 1016,8 81 - 39
06:44 10,2 7,1 6,4 OZO 20,9 1016,8 81 - 46
06:49 10,3 7,2 9,7 Zuiden 16,1 1016,8 81 - 65
06:54 10,4 7,1 4,7 Zuiden 16,1 1016,8 80 - 69
06:59 10,6 7,3 7,9 ZO 14,5 1016,8 80 - 62
07:04 10,7 7,4 6,4 ZZO 16,1 1016,8 80 - 69
07:09 10,7 7,4 4,7 ZZW 12,9 1016,8 80 - 65
07:14 10,8 7,5 3,2 OZO 16,1 1016,8 80 - 47
07:19 10,7 7,4 7,9 Zuiden 11,3 1016,8 80 - 49
07:24 10,7 7,4 6,4 ZZW 9,7 1016,8 80 - 62
07:29 10,7 7,4 13,0 ZZW 14,5 1016,8 80 - 156
07:34 10,9 7,6 7,9 ZZW 16,1 1016,8 80 - 155
07:39 11,1 7,8 6,4 Zuiden 14,5 1016,8 80 - 174
07:44 11,3 7,8 9,7 ZZO 14,5 1017,2 79 - 195
07:49 11,6 8,1 4,7 ZW 14,5 1017,2 79 - 216
07:54 11,8 8,1 7,9 Zuiden 17,7 1017,2 78 - 232
07:59 12,0 8,5 4,7 ZZW 11,3 1017,2 79 - 232
08:04 12,2 8,5 6,4 ZZO 11,3 1017,2 78 - 221
08:09 12,4 8,5 7,9 ZW 19,3 1017,2 77 - 229
08:14 12,7 8,8 4,7 Zuiden 14,5 1017,2 77 - 253
08:19 12,8 8,9 9,7 Zuiden 14,5 1017,2 77 - 290
08:24 13,1 9,0 7,9 ZZW 12,9 1017,2 76 - 309
08:29 13,3 8,8 4,7 ZW 19,3 1017,2 74 - 316
08:34 13,5 9,0 4,7 ZW 12,9 1016,8 74 - 327
08:39 13,7 8,9 9,7 ZW 16,1 1017,2 73 - 341
08:44 13,9 8,9 9,7 ZZW 22,5 1017,2 72 - 350
08:49 14,2 9,0 6,4 OZO 17,7 1017,2 71 - 364
08:54 14,4 9,2 4,7 Zuiden 9,7 1016,8 71 - 380
08:59 14,6 9,4 14,3 Zuiden 22,5 1017,2 71 - 404
09:04 14,9 9,5 7,9 ZZW 16,1 1017,2 70 - 490
09:09 15,1 9,5 16,3 Zuiden 20,9 1017,2 69 - 371
09:14 15,2 9,8 6,4 ZW 16,1 1017,2 70 - 462
09:19 15,4 9,5 13,0 ZZW 20,9 1017,2 68 - 480
09:24 15,7 9,6 16,3 ZZW 22,5 1017,2 67 - 469
09:29 15,7 9,8 6,4 Westen 14,5 1017,2 68 - 411
09:34 15,8 9,7 13,0 Zuiden 16,1 1017,2 67 - 438
09:39 16,1 9,7 17,7 ZZW 19,3 1017,2 66 - 450
09:44 16,3 9,9 13,0 ZW 27,4 1016,8 66 - 443
09:49 16,4 9,3 16,3 ZZW 20,9 1017,2 63 - 424
09:54 16,7 10,1 6,4 ZZW 16,1 1017,2 65 - 418
09:59 16,7 9,1 13,0 ZZW 25,7 1017,2 61 - 413
10:04 16,8 9,7 9,7 ZW 16,1 1016,8 63 - 431
10:09 17,0 10,1 9,7 ZZW 24,1 1016,8 64 - 439
10:14 17,3 10,2 7,9 ZZW 16,1 1016,8 63 - 436
10:19 17,4 9,8 19,5 WZW 30,6 1016,8 61 - 461
10:24 17,3 9,7 11,1 ZZW 20,9 1016,8 61 - 480
10:29 17,5 10,1 9,7 ZW 20,9 1016,8 62 - 520
10:34 17,8 10,4 6,4 ZZO 25,7 1016,8 62 - 547
10:39 18,2 10,3 22,7 Zuiden 24,1 1016,8 60 - 578
10:44 18,3 10,4 7,9 ZZO 16,1 1016,8 60 - 608
10:49 18,4 10,2 16,3 ZW 19,3 1016,8 59 - 647
10:54 18,7 10,3 14,3 ZZW 29,0 1016,8 58 - 612
10:59 18,6 10,4 7,9 ZW 20,9 1016,8 59 - 613
11:04 18,7 10,8 9,7 ZZW 17,7 1016,8 60 - 555
11:09 18,7 10,0 14,3 ZW 27,4 1016,8 57 - 612
11:14 18,9 10,7 13,0 ZZW 25,7 1016,8 59 - 547
11:19 18,9 11,2 22,7 ZZO 22,5 1016,8 61 - 622
11:24 19,1 10,9 14,3 ZZW 22,5 1016,8 59 - 642
11:29 18,9 11,0 17,7 Zuiden 22,5 1016,8 60 - 483
11:34 18,7 10,5 16,3 ZZW 17,7 1016,8 59 - 369
11:39 18,7 11,0 11,1 ZZW 22,5 1016,8 61 - 353
11:44 19,3 10,8 16,3 ZZW 24,1 1016,8 58 - 715
Dagelijkse Samenvatting Donderdag 23 mei 2019
Tijd Temp. ( °C ) Dew pt. ( °C ) Wind ( km/h ) van Windvlaag ( km/h ) Luchtdruk ( hPa ) Humid.( % ) Rainrate ( cm ) Zonneschijn ( W/m2 )
Hoog19,3 11,2 22,7 ZZW ( 309/946 ) 30,6 1018,8 86 - 715
Gemiddeld11,6 7,7 6,7 Zuiden #43/141 11,9 1017,5 78 - 296 #76/141
Laag8,6 6,2 -   1,6 1016,8 57 -  
Dagelijkse Tabular details for Donderdag 23 mei 2019
Tijd Temp. ( °C ) Dew pt. ( °C ) Wind ( km/h ) van Windvlaag ( km/h ) Luchtdruk ( hPa ) Humid.( % ) Rainrate ( cm ) Zonneschijn ( W/m2 )
00:04 9,7 6,2 4,7 Westen 4,8 1018,5 79 - -
00:09 9,6 6,3 1,4 Westen 4,8 1018,5 80 - -
00:14 9,6 6,3 1,4 Westen 3,2 1018,8 80 - -
00:19 9,5 6,2 3,2 Westen 4,8 1018,5 80 - -
00:24 9,4 6,3 3,2 Westen 3,2 1018,5 81 - -
00:29 9,4 6,3 1,4 Westen 3,2 1018,5 81 - -
00:34 9,4 6,3 1,4 Westen 3,2 1018,5 81 - -
00:39 9,4 6,5   Windstil 3,2 1018,5 82 - -
00:44 9,4 6,5 3,2 Westen 3,2 1018,5 82 - -
00:49 9,4 6,5 3,2 Westen 3,2 1018,5 82 - -
00:54 9,4 6,5 3,2 Westen 3,2 1018,5 82 - -
00:59 9,4 6,7 3,2 Westen 4,8 1018,5 83 - -
01:04 9,4 6,7 1,4 Westen 3,2 1018,5 83 - -
01:09 9,4 6,7 1,4 Westen 3,2 1018,5 83 - -
01:14 9,4 6,7   Windstil 1,6 1018,5 83 - -
01:19 9,3 6,6 1,4 Westen 1,6 1018,5 83 - -
01:24 9,2 6,5   Windstil 1,6 1018,2 83 - -
01:29 9,2 6,5 1,4 Westen 3,2 1018,2 83 - -
01:34 9,1 6,4 1,4 Westen 3,2 1018,2 83 - -
01:39 9,1 6,5 1,4 Westen 3,2 1018,2 84 - -
01:44 9,1 6,5 1,4 Westen 3,2 1018,5 84 - -
01:49 9,0 6,4 1,4 Westen 3,2 1018,5 84 - -
01:54 9,0 6,4 1,4 ZW 3,2 1018,5 84 - -
01:59 9,0 6,6 4,7 ZW 4,8 1018,5 85 - -
02:04 9,0 6,6 3,2 ZW 4,8 1018,2 85 - -
02:09 8,9 6,5 3,2 ZW 4,8 1018,2 85 - -
02:14 9,0 6,6 3,2 ZW 4,8 1018,2 85 - -
02:19 8,9 6,3 3,2 ZW 4,8 1018,2 84 - -
02:24 8,9 6,3 4,7 Zuiden 6,4 1018,2 84 - -
02:29 8,9 6,5 3,2 Zuiden 4,8 1018,2 85 - -
02:34 8,8 6,4 4,7 Zuiden 6,4 1018,2 85 - -
02:39 8,8 6,4 3,2 Zuiden 6,4 1018,2 85 - -
02:44 8,8 6,6 3,2 Zuiden 6,4 1018,2 86 - -
02:49 8,8 6,6 3,2 Zuiden 4,8 1018,2 86 - -
02:54 8,8 6,4 4,7 Zuiden 4,8 1018,2 85 - -
02:59 8,8 6,6 1,4 Zuiden 4,8 1018,2 86 - -
03:04 8,8 6,4 1,4 Zuiden 4,8 1018,2 85 - -
03:09 8,8 6,6 4,7 Zuiden 6,4 1017,8 86 - -
03:14 8,7 6,5 3,2 Zuiden 4,8 1017,8 86 - -
03:19 8,7 6,5 3,2 Zuiden 8,0 1017,8 86 - -
03:24 8,7 6,5 4,7 Zuiden 6,4 1017,8 86 - -
03:29 8,7 6,5 3,2 Zuiden 6,4 1017,8 86 - -
03:34 8,7 6,5 4,7 Zuiden 6,4 1017,8 86 - -
03:39 8,7 6,5 7,9 Zuiden 9,7 1017,8 86 - -
03:44 8,8 6,6 6,4 ZZO 6,4 1017,8 86 - -
03:49 8,8 6,6 6,4 ZZO 8,0 1017,8 86 - -
03:54 8,8 6,6 1,4 ZZO 8,0 1017,8 86 - -
03:59 8,8 6,6 1,4 Zuiden 4,8 1017,8 86 - -
04:04 8,8 6,4 1,4 Zuiden 4,8 1017,8 85 - -
04:09 8,8 6,4 4,7 Zuiden 4,8 1017,5 85 - -
04:14 8,7 6,3 3,2 Zuiden 4,8 1017,5 85 - -
04:19 8,7 6,3 6,4 Zuiden 6,4 1017,5 85 - -
04:24 8,6 6,2 1,4 Zuiden 4,8 1017,5 85 - -
04:29 8,6 6,2 4,7 Zuiden 6,4 1017,5 85 - -
04:34 8,6 6,4 4,7 Zuiden 8,0 1017,5 86 - -
04:39 8,7 6,5 3,2 ZZO 9,7 1017,5 86 - -
04:44 8,9 6,5 4,7 Zuiden 9,7 1017,5 85 - -
04:49 9,1 6,7 9,7 Zuiden 11,3 1017,2 85 - -
04:54 9,3 6,7 6,4 ZZO 12,9 1017,2 84 - -
04:59 9,3 6,7 6,4 ZZO 9,7 1017,2 84 - -
05:04 9,3 6,7 3,2 Zuiden 11,3 1017,2 84 - -
05:09 9,3 6,7 6,4 ZW 8,0 1017,2 84 - -
05:14 9,3 6,7 7,9 ZZO 9,7 1017,2 84 - -
05:19 9,3 6,7 4,7 ZO 11,3 1017,2 84 - -
05:24 9,3 6,7 7,9 ZZO 8,0 1017,2 84 - -
05:29 9,4 6,7 7,9 ZZO 12,9 1017,2 83 - 5
05:34 9,4 6,7 3,2 Zuiden 9,7 1017,2 83 - 7
05:39 9,5 6,8 3,2 ZZW 9,7 1017,2 83 - 9
05:44 9,6 6,9 7,9 ZZW 11,3 1017,2 83 - 11
05:49 9,6 6,9 6,4 Zuiden 9,7 1017,2 83 - 12
05:54 9,6 6,7 4,7 ZW 11,3 1017,2 82 - 16
05:59 9,7 6,8 7,9 ZZO 12,9 1017,2 82 - 18
06:04 9,6 6,7 4,7 Zuiden 16,1 1016,8 82 - 19
06:09 9,7 6,8 6,4 ZZW 9,7 1016,8 82 - 21
06:14 9,7 6,8 7,9 ZO 16,1 1016,8 82 - 25
06:19 9,7 6,8 6,4 ZZW 12,9 1016,8 82 - 26
06:24 9,8 6,9 6,4 ZZW 12,9 1016,8 82 - 37
06:29 9,8 6,9 6,4 ZZO 14,5 1016,8 82 - 30
06:34 9,9 7,0 9,7 ZZW 11,3 1016,8 82 - 35
06:39 10,1 7,0 6,4 OZO 14,5 1016,8 81 - 39
06:44 10,2 7,1 6,4 OZO 20,9 1016,8 81 - 46
06:49 10,3 7,2 9,7 Zuiden 16,1 1016,8 81 - 65
06:54 10,4 7,1 4,7 Zuiden 16,1 1016,8 80 - 69
06:59 10,6 7,3 7,9 ZO 14,5 1016,8 80 - 62
07:04 10,7 7,4 6,4 ZZO 16,1 1016,8 80 - 69
07:09 10,7 7,4 4,7 ZZW 12,9 1016,8 80 - 65
07:14 10,8 7,5 3,2 OZO 16,1 1016,8 80 - 47
07:19 10,7 7,4 7,9 Zuiden 11,3 1016,8 80 - 49
07:24 10,7 7,4 6,4 ZZW 9,7 1016,8 80 - 62
07:29 10,7 7,4 13,0 ZZW 14,5 1016,8 80 - 156
07:34 10,9 7,6 7,9 ZZW 16,1 1016,8 80 - 155
07:39 11,1 7,8 6,4 Zuiden 14,5 1016,8 80 - 174
07:44 11,3 7,8 9,7 ZZO 14,5 1017,2 79 - 195
07:49 11,6 8,1 4,7 ZW 14,5 1017,2 79 - 216
07:54 11,8 8,1 7,9 Zuiden 17,7 1017,2 78 - 232
07:59 12,0 8,5 4,7 ZZW 11,3 1017,2 79 - 232
08:04 12,2 8,5 6,4 ZZO 11,3 1017,2 78 - 221
08:09 12,4 8,5 7,9 ZW 19,3 1017,2 77 - 229
08:14 12,7 8,8 4,7 Zuiden 14,5 1017,2 77 - 253
08:19 12,8 8,9 9,7 Zuiden 14,5 1017,2 77 - 290
08:24 13,1 9,0 7,9 ZZW 12,9 1017,2 76 - 309
08:29 13,3 8,8 4,7 ZW 19,3 1017,2 74 - 316
08:34 13,5 9,0 4,7 ZW 12,9 1016,8 74 - 327
08:39 13,7 8,9 9,7 ZW 16,1 1017,2 73 - 341
08:44 13,9 8,9 9,7 ZZW 22,5 1017,2 72 - 350
08:49 14,2 9,0 6,4 OZO 17,7 1017,2 71 - 364
08:54 14,4 9,2 4,7 Zuiden 9,7 1016,8 71 - 380
08:59 14,6 9,4 14,3 Zuiden 22,5 1017,2 71 - 404
09:04 14,9 9,5 7,9 ZZW 16,1 1017,2 70 - 490
09:09 15,1 9,5 16,3 Zuiden 20,9 1017,2 69 - 371
09:14 15,2 9,8 6,4 ZW 16,1 1017,2 70 - 462
09:19 15,4 9,5 13,0 ZZW 20,9 1017,2 68 - 480
09:24 15,7 9,6 16,3 ZZW 22,5 1017,2 67 - 469
09:29 15,7 9,8 6,4 Westen 14,5 1017,2 68 - 411
09:34 15,8 9,7 13,0 Zuiden 16,1 1017,2 67 - 438
09:39 16,1 9,7 17,7 ZZW 19,3 1017,2 66 - 450
09:44 16,3 9,9 13,0 ZW 27,4 1016,8 66 - 443
09:49 16,4 9,3 16,3 ZZW 20,9 1017,2 63 - 424
09:54 16,7 10,1 6,4 ZZW 16,1 1017,2 65 - 418
09:59 16,7 9,1 13,0 ZZW 25,7 1017,2 61 - 413
10:04 16,8 9,7 9,7 ZW 16,1 1016,8 63 - 431
10:09 17,0 10,1 9,7 ZZW 24,1 1016,8 64 - 439
10:14 17,3 10,2 7,9 ZZW 16,1 1016,8 63 - 436
10:19 17,4 9,8 19,5 WZW 30,6 1016,8 61 - 461
10:24 17,3 9,7 11,1 ZZW 20,9 1016,8 61 - 480
10:29 17,5 10,1 9,7 ZW 20,9 1016,8 62 - 520
10:34 17,8 10,4 6,4 ZZO 25,7 1016,8 62 - 547
10:39 18,2 10,3 22,7 Zuiden 24,1 1016,8 60 - 578
10:44 18,3 10,4 7,9 ZZO 16,1 1016,8 60 - 608
10:49 18,4 10,2 16,3 ZW 19,3 1016,8 59 - 647
10:54 18,7 10,3 14,3 ZZW 29,0 1016,8 58 - 612
10:59 18,6 10,4 7,9 ZW 20,9 1016,8 59 - 613
11:04 18,7 10,8 9,7 ZZW 17,7 1016,8 60 - 555
11:09 18,7 10,0 14,3 ZW 27,4 1016,8 57 - 612
11:14 18,9 10,7 13,0 ZZW 25,7 1016,8 59 - 547
11:19 18,9 11,2 22,7 ZZO 22,5 1016,8 61 - 622
11:24 19,1 10,9 14,3 ZZW 22,5 1016,8 59 - 642
11:29 18,9 11,0 17,7 Zuiden 22,5 1016,8 60 - 483
11:34 18,7 10,5 16,3 ZZW 17,7 1016,8 59 - 369
11:39 18,7 11,0 11,1 ZZW 22,5 1016,8 61 - 353
11:44 19,3 10,8 16,3 ZZW 24,1 1016,8 58 - 715

Download your copy of this data-set  here

Our weather-data as stored at Weather Underground. Script ontwikkeld door Jim McMurry. Aangepast voor de template door Leuven-Template.eu

U vindt ons ook hier:

Het Weer Aktueel

UK Metoffice

European Weather Network

Weather Underground

AWEKAS

Citizen Weather Observer Program (CWOP)

HAMweather, WeatherForYou, PWS Weather

Apparatuur in gebruik:

Weerstation
Davis Vantage pro 2

Weerprogramma
Meteobridge

Weercomputer
TP-Link TL-WR703N

Webleverancier
Versio

Davis Vantage pro 2

Meteobridge

TP-Link TL-WR703N

Versio